Location: Unspecified
(0.0000°N, 0.0000°E)
Time: 18:23:51
(UTC+00:00)

STARLINK 1054 - Pass Details

Date: 15 January 2020
Orbit: 548 x 551 km, 53.0° (Epoch: 17 January)

Event Time Altitude Azimuth Distance (km) Brightness Sun altitude
Rises 19:10:31 0° 326° (NW) 2,701 7.3 -14.2°
Reaches altitude 10° 19:12:44 10° 326° (NW) 1,811 6.4 -14.8°
Maximum altitude 19:16:51 90° 21° (NNE) 552 3.5 -15.7°
Drops below altitude 10° 19:21:00 10° 146° (SE) 1,820 6.1 -16.7°
Sets 19:23:14 0° 146° (SE) 2,716 7.0 -17.2°
